| time (UTC) | temp F | wind direction | speed MPH | gust MPH | rain 1hr in | rain 24hr in | rain mn in | humidity % | barometer mb |
| 20260904123543 | 89 | 157 | 2.0 | 8.0 | 0.00 | 0.00 | 0.00 | 46 | 1019.5 |
| 20260904123034 | 89 | 183 | 3.0 | 8.0 | 0.00 | 0.00 | 0.00 | 47 | 1019.5 |
| 20260904122537 | 89 | 139 | 0.0 | 9.0 | 0.00 | 0.00 | 0.00 | 46 | 1019.5 |
| 20260904122044 | 89 | 112 | 0.0 | 9.0 | 0.00 | 0.00 | 0.00 | 48 | 1019.6 |
| 20260904121607 | 89 | 100 | 0.0 | 5.0 | 0.00 | 0.00 | 0.00 | 48 | 1019.7 |
| 20260904121059 | 89 | 114 | 0.0 | 5.0 | 0.00 | 0.00 | 0.00 | 48 | 1019.7 |
| 20260904120532 | 89 | 75 | 0.0 | 5.0 | 0.00 | 0.00 | 0.00 | 48 | 1019.8 |
| 20260904120044 | 89 | 112 | 0.0 | 3.0 | 0.00 | 0.00 | 0.00 | 48 | 1019.8 |
| 20260904115544 | 89 | 100 | 0.0 | 9.0 | 0.00 | 0.00 | 0.00 | 46 | 1019.9 |
| 20260904115058 | 89 | 56 | 1.0 | 9.0 | 0.00 | 0.00 | 0.00 | 47 | 1019.9 |
| 20260904114540 | 88 | 81 | 0.0 | 5.0 | 0.00 | 0.00 | 0.00 | 49 | 1019.9 |
| 20260904114047 | 88 | 41 | 0.0 | 9.0 | 0.00 | 0.00 | 0.00 | 47 | 1020.0 |
| 20260904113547 | 88 | 147 | 6.0 | 9.0 | 0.00 | 0.00 | 0.00 | 48 | 1020.1 |
| 20260904113059 | 88 | 151 | 1.0 | 5.0 | 0.00 | 0.00 | 0.00 | 50 | 1020.0 |
| 20260904112534 | 87 | 87 | 0.0 | 9.0 | 0.00 | 0.00 | 0.00 | 48 | 1020.1 |
| 20260904112111 | 87 | 130 | 5.0 | 9.0 | 0.00 | 0.00 | 0.00 | 47 | 1020.2 |
| 20260904111546 | 88 | 129 | 5.0 | 9.0 | 0.00 | 0.00 | 0.00 | 47 | 1020.2 |
| 20260904111034 | 88 | 142 | 2.0 | 7.0 | 0.00 | 0.00 | 0.00 | 47 | 1020.2 |
| 20260904110537 | 88 | 166 | 0.0 | 8.0 | 0.00 | 0.00 | 0.00 | 47 | 1020.2 |
| 20260904110045 | 88 | 174 | 5.0 | 8.0 | 0.00 | 0.00 | 0.00 | 48 | 1020.3 |
| 20260904105546 | 88 | 136 | 0.0 | 7.0 | 0.00 | 0.00 | 0.00 | 48 | 1020.3 |
| 20260904105059 | 87 | 68 | 1.0 | 7.0 | 0.00 | 0.00 | 0.00 | 47 | 1020.4 |
| 20260904104534 | 87 | 75 | 0.0 | 6.0 | 0.00 | 0.00 | 0.00 | 47 | 1020.5 |
| 20260904104111 | 87 | 93 | 1.0 | 7.0 | 0.00 | 0.00 | 0.00 | 47 | 1020.4 |
| 20260904103554 | 87 | 118 | 2.0 | 7.0 | 0.00 | 0.00 | 0.00 | 48 | 1020.5 |
| 20260904103045 | 87 | 78 | 0.0 | 6.0 | 0.00 | 0.00 | 0.00 | 47 | 1020.5 |
| 20260904102546 | 86 | 114 | 1.0 | 7.0 | 0.00 | 0.00 | 0.00 | 47 | 1020.6 |
| 20260904102037 | 86 | 145 | 0.0 | 8.0 | 0.00 | 0.00 | 0.00 | 47 | 1020.6 |
| 20260904101603 | 86 | 172 | 0.0 | 7.0 | 0.00 | 0.00 | 0.00 | 47 | 1020.7 |
| 20260904101049 | 86 | 139 | 1.0 | 7.0 | 0.00 | 0.00 | 0.00 | 46 | 1020.8 |
| 20260904100551 | 86 | 127 | 1.0 | 6.0 | 0.00 | 0.00 | 0.00 | 47 | 1020.9 |
| 20260904100040 | 85 | 100 | 1.0 | 7.0 | 0.00 | 0.00 | 0.00 | 47 | 1020.9 |
| 20260904095541 | 85 | 156 | 0.0 | 8.0 | 0.00 | 0.00 | 0.00 | 48 | 1021.0 |
| 20260904095036 | 85 | 142 | 1.0 | 8.0 | 0.00 | 0.00 | 0.00 | 47 | 1021.1 |
| 20260904094538 | 85 | 143 | 0.0 | 6.0 | 0.00 | 0.00 | 0.00 | 47 | 1021.1 |
| 20260904094056 | 85 | 143 | 0.0 | 0.0 | 0.00 | 0.00 | 0.00 | 48 | 1021.1 |
| 20260904093532 | 85 | 143 | 0.0 | 4.0 | 0.00 | 0.00 | 0.00 | 48 | 1021.2 |
| 20260904093051 | 84 | 143 | 0.0 | 5.0 | 0.00 | 0.00 | 0.00 | 49 | 1021.3 |
| 20260904092546 | 84 | 143 | 3.0 | 6.0 | 0.00 | 0.00 | 0.00 | 49 | 1021.4 |
| 20260904092101 | 84 | 145 | 0.0 | 3.0 | 0.00 | 0.00 | 0.00 | 47 | 1021.4 |
| 20260904091541 | 84 | 148 | 0.0 | 0.0 | 0.00 | 0.00 | 0.00 | 48 | 1021.4 |
| 20260904091059 | 83 | 148 | 0.0 | 6.0 | 0.00 | 0.00 | 0.00 | 48 | 1021.4 |
| 20260904090533 | 83 | 149 | 0.0 | 6.0 | 0.00 | 0.00 | 0.00 | 50 | 1021.3 |
| 20260904090046 | 83 | 152 | 2.0 | 6.0 | 0.00 | 0.00 | 0.00 | 51 | 1021.3 |
| 20260904085549 | 82 | 152 | 0.0 | 5.0 | 0.00 | 0.00 | 0.00 | 52 | 1021.3 |
| 20260904085108 | 82 | 152 | 0.0 | 0.0 | 0.00 | 0.00 | 0.00 | 53 | 1021.3 |
| 20260904084548 | 82 | 152 | 0.0 | 0.0 | 0.00 | 0.00 | 0.00 | 53 | 1021.4 |
| 20260904084032 | 81 | 152 | 0.0 | 0.0 | 0.00 | 0.00 | 0.00 | 54 | 1021.4 |
| 20260904083535 | 81 | 152 | 0.0 | 0.0 | 0.00 | 0.00 | 0.00 | 56 | 1021.4 |
| 20260904083041 | 80 | 152 | 0.0 | 1.0 | 0.00 | 0.00 | 0.00 | 56 | 1021.4 |
| 20260904082544 | 80 | 152 | 0.0 | 0.0 | 0.00 | 0.00 | 0.00 | 56 | 1021.4 |
| 20260904082035 | 79 | 152 | 0.0 | 0.0 | 0.00 | 0.00 | 0.00 | 59 | 1021.3 |
| 20260904081536 | 79 | 160 | 0.0 | 0.0 | 0.00 | 0.00 | 0.00 | 58 | 1021.3 |
| 20260904081041 | 79 | 160 | 0.0 | 0.0 | 0.00 | 0.00 | 0.00 | 59 | 1021.4 |
| 20260904080603 | 78 | 166 | 0.0 | 0.0 | 0.00 | 0.00 | 0.00 | 61 | 1021.3 |
| 20260904080057 | 78 | 146 | 0.0 | 0.0 | 0.00 | 0.00 | 0.00 | 63 | 1021.2 |
| 20260904075539 | 78 | 141 | 0.0 | 0.0 | 0.00 | 0.00 | 0.00 | 63 | 1021.3 |
| 20260904075047 | 78 | 141 | 0.0 | 4.0 | 0.00 | 0.00 | 0.00 | 65 | 1021.3 |
| 20260904074549 | 78 | 143 | 1.0 | 4.0 | 0.00 | 0.00 | 0.00 | 67 | 1021.2 |
| 20260904074038 | 78 | 127 | 0.0 | 0.0 | 0.00 | 0.00 | 0.00 | 64 | 1021.2 |
| 20260904073538 | 78 | 125 | 0.0 | 0.0 | 0.00 | 0.00 | 0.00 | 63 | 1021.3 |
| 20260904073045 | 78 | 159 | 0.0 | 0.0 | 0.00 | 0.00 | 0.00 | 63 | 1021.2 |
| 20260904072547 | 78 | 135 | 0.0 | 2.0 | 0.00 | 0.00 | 0.00 | 64 | 1021.2 |
| 20260904072035 | 78 | 137 | 0.0 | 4.0 | 0.00 | 0.00 | 0.00 | 66 | 1021.2 |
| 20260904071537 | 78 | 318 | 0.0 | 0.0 | 0.00 | 0.00 | 0.00 | 65 | 1021.2 |
| 20260904071050 | 77 | 318 | 0.0 | 0.0 | 0.00 | 0.00 | 0.00 | 64 | 1021.2 |
| 20260904070552 | 77 | 318 | 0.0 | 0.0 | 0.00 | 0.00 | 0.00 | 65 | 1021.2 |
| 20260904070038 | 76 | 318 | 0.0 | 0.0 | 0.00 | 0.00 | 0.00 | 67 | 1021.1 |
| 20260904065541 | 76 | 318 | 0.0 | 0.0 | 0.00 | 0.00 | 0.00 | 68 | 1021.1 |
| 20260904065058 | 77 | 318 | 0.0 | 0.0 | 0.00 | 0.00 | 0.00 | 67 | 1021.1 |
| 20260904064533 | 77 | 318 | 0.0 | 0.0 | 0.00 | 0.00 | 0.00 | 67 | 1021.1 |
| 20260904064107 | 76 | 318 | 0.0 | 0.0 | 0.00 | 0.00 | 0.00 | 67 | 1021.1 |
| 20260904063608 | 75 | 318 | 0.0 | 0.0 | 0.00 | 0.00 | 0.00 | 63 | 1021.1 |
| 20260904063050 | 75 | 318 | 0.0 | 0.0 | 0.00 | 0.00 | 0.00 | 65 | 1021.1 |
| 20260904062532 | 74 | 318 | 0.0 | 0.0 | 0.00 | 0.00 | 0.00 | 67 | 1021.1 |
| 20260904062038 | 74 | 318 | 0.0 | 0.0 | 0.00 | 0.00 | 0.00 | 67 | 1021.0 |
| 20260904061559 | 73 | 318 | 0.0 | 0.0 | 0.00 | 0.00 | 0.00 | 69 | 1021.0 |
| 20260904061046 | 73 | 318 | 0.0 | 0.0 | 0.00 | 0.00 | 0.00 | 71 | 1020.9 |
| 20260904060609 | 73 | 318 | 0.0 | 0.0 | 0.00 | 0.00 | 0.00 | 72 | 1020.8 |
| 20260904060037 | 73 | 318 | 0.0 | 0.0 | 0.00 | 0.00 | 0.00 | 71 | 1020.8 |
| 20260904055539 | 72 | 318 | 0.0 | 0.0 | 0.00 | 0.00 | 0.00 | 71 | 1020.7 |
| 20260904055043 | 72 | 318 | 0.0 | 0.0 | 0.00 | 0.00 | 0.00 | 71 | 1020.6 |
| 20260904054605 | 72 | 318 | 0.0 | 0.0 | 0.00 | 0.00 | 0.00 | 71 | 1020.6 |
| 20260904054033 | 72 | 318 | 0.0 | 0.0 | 0.00 | 0.00 | 0.00 | 71 | 1020.5 |
| 20260904053556 | 71 | 318 | 0.0 | 0.0 | 0.00 | 0.00 | 0.00 | 71 | 1020.4 |
| 20260904053047 | 71 | 318 | 0.0 | 0.0 | 0.00 | 0.00 | 0.00 | 70 | 1020.4 |
| 20260904052607 | 71 | 318 | 0.0 | 0.0 | 0.00 | 0.00 | 0.00 | 71 | 1020.4 |
| 20260904052035 | 71 | 318 | 0.0 | 0.0 | 0.00 | 0.00 | 0.00 | 70 | 1020.3 |
| 20260904051551 | 71 | 318 | 0.0 | 0.0 | 0.00 | 0.00 | 0.00 | 71 | 1020.4 |
| 20260904051038 | 71 | 318 | 0.0 | 0.0 | 0.00 | 0.00 | 0.00 | 70 | 1020.3 |
| 20260904050602 | 70 | 318 | 0.0 | 0.0 | 0.00 | 0.00 | 0.00 | 71 | 1020.3 |
| 20260904050031 | 71 | 318 | 0.0 | 0.0 | 0.00 | 0.00 | 0.00 | 71 | 1020.2 |
| 20260904045534 | 71 | 318 | 0.0 | 0.0 | 0.00 | 0.00 | 0.00 | 71 | 1020.2 |
| 20260904045044 | 70 | 318 | 0.0 | 0.0 | 0.00 | 0.00 | 0.00 | 72 | 1020.3 |
| 20260904044548 | 70 | 318 | 0.0 | 0.0 | 0.00 | 0.00 | 0.00 | 73 | 1020.3 |
| 20260904044037 | 70 | 318 | 0.0 | 0.0 | 0.00 | 0.00 | 0.00 | 73 | 1020.2 |
| 20260904043538 | 70 | 318 | 0.0 | 0.0 | 0.00 | 0.00 | 0.00 | 73 | 1020.2 |
| 20260904043040 | 70 | 318 | 0.0 | 0.0 | 0.00 | 0.00 | 0.00 | 73 | 1020.2 |
| 20260904042542 | 70 | 318 | 0.0 | 0.0 | 0.00 | 0.00 | 0.00 | 73 | 1020.3 |
| 20260904042032 | 70 | 318 | 0.0 | 0.0 | 0.00 | 0.00 | 0.00 | 73 | 1020.2 |
| 20260904041536 | 70 | 318 | 0.0 | 0.0 | 0.00 | 0.00 | 0.00 | 73 | 1020.2 |
| 20260904041043 | 70 | 318 | 0.0 | 0.0 | 0.00 | 0.00 | 0.00 | 73 | 1020.2 |
| 20260904040606 | 70 | 318 | 0.0 | 0.0 | 0.00 | 0.00 | 0.00 | 73 | 1020.2 |
| 20260904040035 | 71 | 318 | 0.0 | 0.0 | 0.00 | 0.00 | 0.00 | 73 | 1020.2 |
| 20260904035540 | 71 | 318 | 0.0 | 0.0 | 0.00 | 0.00 | 0.00 | 73 | 1020.2 |
| 20260904035043 | 71 | 318 | 0.0 | 0.0 | 0.00 | 0.00 | 0.00 | 73 | 1020.3 |
| 20260904034543 | 71 | 318 | 0.0 | 0.0 | 0.00 | 0.00 | 0.00 | 72 | 1020.4 |
| 20260904034032 | 71 | 318 | 0.0 | 0.0 | 0.00 | 0.00 | 0.00 | 71 | 1020.4 |
| 20260904033537 | 71 | 318 | 0.0 | 0.0 | 0.00 | 0.00 | 0.00 | 71 | 1020.4 |
| 20260904033044 | 71 | 318 | 0.0 | 0.0 | 0.00 | 0.00 | 0.00 | 71 | 1020.4 |
| 20260904032549 | 71 | 318 | 0.0 | 0.0 | 0.00 | 0.00 | 0.00 | 72 | 1020.4 |
| 20260904032039 | 70 | 318 | 0.0 | 0.0 | 0.00 | 0.00 | 0.00 | 72 | 1020.5 |
| 20260904031540 | 70 | 318 | 0.0 | 0.0 | 0.00 | 0.00 | 0.00 | 73 | 1020.4 |
| 20260904031112 | 70 | 318 | 0.0 | 0.0 | 0.00 | 0.00 | 0.00 | 73 | 1020.4 |
| 20260904030612 | 71 | 318 | 0.0 | 0.0 | 0.00 | 0.00 | 0.00 | 72 | 1020.3 |
| 20260904030046 | 71 | 318 | 0.0 | 0.0 | 0.00 | 0.00 | 0.00 | 72 | 1020.4 |
| 20260904025549 | 71 | 318 | 0.0 | 0.0 | 0.00 | 0.00 | 0.00 | 71 | 1020.4 |
| 20260904025040 | 71 | 318 | 0.0 | 0.0 | 0.00 | 0.00 | 0.00 | 71 | 1020.4 |
| 20260904024544 | 71 | 318 | 0.0 | 0.0 | 0.00 | 0.00 | 0.00 | 71 | 1020.5 |
| 20260904024041 | 71 | 318 | 0.0 | 0.0 | 0.00 | 0.00 | 0.00 | 71 | 1020.4 |
| 20260904023539 | 71 | 318 | 0.0 | 2.0 | 0.00 | 0.00 | 0.00 | 72 | 1020.5 |
| 20260904023057 | 71 | 318 | 0.0 | 2.0 | 0.00 | 0.00 | 0.00 | 73 | 1020.5 |
| 20260904022532 | 71 | 318 | 0.0 | 0.0 | 0.00 | 0.00 | 0.00 | 74 | 1020.5 |
| 20260904022110 | 71 | 318 | 0.0 | 0.0 | 0.00 | 0.00 | 0.00 | 73 | 1020.5 |
| 20260904021552 | 71 | 318 | 0.0 | 0.0 | 0.00 | 0.00 | 0.00 | 72 | 1020.5 |
| 20260904021041 | 71 | 318 | 0.0 | 0.0 | 0.00 | 0.00 | 0.00 | 72 | 1020.4 |
| 20260904020601 | 71 | 318 | 0.0 | 0.0 | 0.00 | 0.00 | 0.00 | 73 | 1020.5 |
| 20260904020051 | 72 | 318 | 0.0 | 0.0 | 0.00 | 0.00 | 0.00 | 72 | 1020.4 |
| 20260904015532 | 72 | 318 | 0.0 | 0.0 | 0.00 | 0.00 | 0.00 | 72 | 1020.4 |
| 20260904015043 | 72 | 318 | 0.0 | 0.0 | 0.00 | 0.00 | 0.00 | 72 | 1020.4 |
| 20260904014545 | 72 | 318 | 0.0 | 3.0 | 0.00 | 0.00 | 0.00 | 71 | 1020.4 |
| 20260904014056 | 72 | 318 | 0.0 | 3.0 | 0.00 | 0.00 | 0.00 | 72 | 1020.4 |
| 20260904013533 | 72 | 318 | 0.0 | 0.0 | 0.00 | 0.00 | 0.00 | 72 | 1020.5 |
| 20260904013041 | 72 | 318 | 0.0 | 0.0 | 0.00 | 0.00 | 0.00 | 71 | 1020.5 |
| 20260904012543 | 72 | 318 | 0.0 | 0.0 | 0.00 | 0.00 | 0.00 | 71 | 1020.5 |
| 20260904012033 | 72 | 318 | 0.0 | 0.0 | 0.00 | 0.00 | 0.00 | 71 | 1020.5 |
| 20260904011533 | 72 | 318 | 0.0 | 0.0 | 0.00 | 0.00 | 0.00 | 71 | 1020.4 |
| 20260904011043 | 73 | 318 | 0.0 | 0.0 | 0.00 | 0.00 | 0.00 | 70 | 1020.5 |
| 20260904010545 | 73 | 318 | 0.0 | 0.0 | 0.00 | 0.00 | 0.00 | 71 | 1020.4 |
| 20260904010054 | 72 | 318 | 0.0 | 0.0 | 0.00 | 0.00 | 0.00 | 71 | 1020.4 |
| 20260904005532 | 72 | 318 | 0.0 | 0.0 | 0.00 | 0.00 | 0.00 | 71 | 1020.4 |
| 20260904005111 | 72 | 318 | 0.0 | 0.0 | 0.00 | 0.00 | 0.00 | 71 | 1020.4 |
| 20260904004612 | 73 | 318 | 0.0 | 0.0 | 0.00 | 0.00 | 0.00 | 70 | 1020.4 |
| 20260904004040 | 73 | 318 | 0.0 | 0.0 | 0.00 | 0.00 | 0.00 | 71 | 1020.4 |
| 20260904003601 | 73 | 318 | 0.0 | 0.0 | 0.00 | 0.00 | 0.00 | 71 | 1020.4 |
| 20260904003057 | 73 | 318 | 0.0 | 0.0 | 0.00 | 0.00 | 0.00 | 70 | 1020.4 |
| 20260904002531 | 73 | 318 | 0.0 | 0.0 | 0.00 | 0.00 | 0.00 | 69 | 1020.4 |
| 20260904002041 | 73 | 318 | 0.0 | 0.0 | 0.00 | 0.00 | 0.00 | 69 | 1020.4 |
| 20260904001547 | 73 | 318 | 0.0 | 0.0 | 0.00 | 0.00 | 0.00 | 69 | 1020.3 |
| 20260904001035 | 73 | 318 | 0.0 | 0.0 | 0.00 | 0.00 | 0.00 | 70 | 1020.4 |
| 20260904000539 | 73 | 318 | 0.0 | 0.0 | 0.00 | 0.00 | 0.00 | 70 | 1020.4 |
| 20260904000044 | 74 | 318 | 0.0 | 0.0 | 0.00 | 0.00 | 0.00 | 70 | 1020.4 |
| 20260903235550 | 74 | 318 | 0.0 | 0.0 | 0.00 | 0.00 | 0.00 | 69 | 1020.4 |
| 20260903235040 | 74 | 318 | 0.0 | 0.0 | 0.00 | 0.00 | 0.00 | 69 | 1020.4 |
| 20260903234604 | 73 | 318 | 0.0 | 0.0 | 0.00 | 0.00 | 0.00 | 69 | 1020.5 |
| 20260903234036 | 73 | 318 | 0.0 | 0.0 | 0.00 | 0.00 | 0.00 | 70 | 1020.5 |
| 20260903233537 | 74 | 318 | 0.0 | 0.0 | 0.00 | 0.00 | 0.00 | 69 | 1020.5 |
| 20260903233044 | 74 | 318 | 0.0 | 0.0 | 0.00 | 0.00 | 0.00 | 69 | 1020.5 |
| 20260903232546 | 75 | 318 | 0.0 | 0.0 | 0.00 | 0.00 | 0.00 | 67 | 1020.5 |
| 20260903232035 | 75 | 318 | 0.0 | 0.0 | 0.00 | 0.00 | 0.00 | 67 | 1020.5 |
| 20260903231538 | 75 | 318 | 0.0 | 0.0 | 0.00 | 0.00 | 0.00 | 67 | 1020.4 |
| 20260903231041 | 76 | 318 | 0.0 | 0.0 | 0.00 | 0.00 | 0.00 | 66 | 1020.5 |
| 20260903230602 | 76 | 318 | 0.0 | 0.0 | 0.00 | 0.00 | 0.00 | 66 | 1020.5 |
| 20260903230100 | 75 | 318 | 0.0 | 0.0 | 0.00 | 0.00 | 0.00 | 66 | 1020.4 |
| 20260903225532 | 75 | 318 | 0.0 | 0.0 | 0.00 | 0.00 | 0.00 | 67 | 1020.3 |
| 20260903225042 | 75 | 318 | 0.0 | 0.0 | 0.00 | 0.00 | 0.00 | 67 | 1020.3 |
| 20260903224545 | 75 | 318 | 0.0 | 0.0 | 0.00 | 0.00 | 0.00 | 68 | 1020.3 |
| 20260903224056 | 75 | 318 | 0.0 | 0.0 | 0.00 | 0.00 | 0.00 | 67 | 1020.4 |
| 20260903223539 | 74 | 318 | 0.0 | 0.0 | 0.00 | 0.00 | 0.00 | 68 | 1020.4 |
| 20260903223108 | 74 | 318 | 0.0 | 0.0 | 0.00 | 0.00 | 0.00 | 68 | 1020.4 |
| 20260903222612 | 74 | 318 | 0.0 | 0.0 | 0.00 | 0.00 | 0.00 | 69 | 1020.4 |
| 20260903222039 | 74 | 318 | 0.0 | 0.0 | 0.00 | 0.00 | 0.00 | 68 | 1020.4 |
| 20260903221542 | 74 | 318 | 0.0 | 0.0 | 0.00 | 0.00 | 0.00 | 68 | 1020.4 |
| 20260903221033 | 75 | 318 | 0.0 | 0.0 | 0.00 | 0.00 | 0.00 | 68 | 1020.4 |
| 20260903220537 | 74 | 318 | 0.0 | 0.0 | 0.00 | 0.00 | 0.00 | 68 | 1020.3 |
| 20260903220045 | 75 | 318 | 0.0 | 0.0 | 0.00 | 0.00 | 0.00 | 68 | 1020.4 |
| 20260903215034 | 75 | 318 | 0.0 | 0.0 | 0.00 | 0.00 | 0.00 | 68 | 1020.4 |
| 20260903214531 | 76 | 318 | 0.0 | 0.0 | 0.00 | 0.00 | 0.00 | 67 | 1020.3 |
| 20260903214041 | 75 | 318 | 0.0 | 0.0 | 0.00 | 0.00 | 0.00 | 67 | 1020.4 |
| 20260903213544 | 75 | 318 | 0.0 | 0.0 | 0.00 | 0.00 | 0.00 | 68 | 1020.4 |
| 20260903213032 | 75 | 318 | 0.0 | 0.0 | 0.00 | 0.00 | 0.00 | 69 | 1020.4 |
| 20260903212556 | 75 | 318 | 0.0 | 0.0 | 0.00 | 0.00 | 0.00 | 68 | 1020.3 |
| 20260903212108 | 75 | 318 | 0.0 | 0.0 | 0.00 | 0.00 | 0.00 | 69 | 1020.3 |
| 20260903211550 | 76 | 318 | 0.0 | 0.0 | 0.00 | 0.00 | 0.00 | 68 | 1020.4 |
| 20260903211037 | 76 | 318 | 0.0 | 0.0 | 0.00 | 0.00 | 0.00 | 67 | 1020.3 |
| 20260903210542 | 77 | 318 | 0.0 | 0.0 | 0.00 | 0.00 | 0.00 | 65 | 1020.3 |
| 20260903210033 | 77 | 318 | 0.0 | 0.0 | 0.00 | 0.00 | 0.00 | 64 | 1020.3 |
| 20260903205535 | 77 | 318 | 0.0 | 0.0 | 0.00 | 0.00 | 0.00 | 65 | 1020.3 |
| 20260903205053 | 77 | 318 | 0.0 | 0.0 | 0.00 | 0.00 | 0.00 | 64 | 1020.2 |
| 20260903204536 | 77 | 318 | 0.0 | 0.0 | 0.00 | 0.00 | 0.00 | 64 | 1020.2 |
| 20260903204046 | 77 | 318 | 0.0 | 0.0 | 0.00 | 0.00 | 0.00 | 64 | 1020.2 |
| 20260903203550 | 77 | 318 | 0.0 | 0.0 | 0.00 | 0.00 | 0.00 | 64 | 1020.2 |
| 20260903203059 | 77 | 321 | 0.0 | 0.0 | 0.00 | 0.00 | 0.00 | 65 | 1020.2 |
| 20260903202536 | 77 | 323 | 0.0 | 0.0 | 0.00 | 0.00 | 0.00 | 65 | 1020.1 |
| 20260903202043 | 78 | 324 | 0.0 | 0.0 | 0.00 | 0.00 | 0.00 | 64 | 1020.1 |
| 20260903201542 | 78 | 324 | 0.0 | 0.0 | 0.00 | 0.00 | 0.00 | 62 | 1020.2 |
| 20260903201034 | 78 | 324 | 0.0 | 0.0 | 0.00 | 0.00 | 0.00 | 63 | 1020.2 |
| 20260903200536 | 78 | 324 | 0.0 | 0.0 | 0.00 | 0.00 | 0.00 | 64 | 1020.1 |
| 20260903200045 | 78 | 324 | 0.0 | 0.0 | 0.00 | 0.00 | 0.00 | 64 | 1020.1 |
| 20260903195546 | 78 | 324 | 0.0 | 0.0 | 0.00 | 0.00 | 0.00 | 64 | 1020.1 |
| 20260903195042 | 78 | 339 | 0.0 | 0.0 | 0.00 | 0.00 | 0.00 | 65 | 1020.0 |
| 20260903194543 | 78 | 339 | 0.0 | 0.0 | 0.00 | 0.00 | 0.00 | 63 | 1020.0 |
| 20260903194042 | 79 | 339 | 0.0 | 0.0 | 0.00 | 0.00 | 0.00 | 62 | 1020.1 |
| 20260903193543 | 80 | 339 | 0.0 | 0.0 | 0.00 | 0.00 | 0.00 | 60 | 1020.0 |
| 20260903193038 | 80 | 339 | 0.0 | 0.0 | 0.00 | 0.00 | 0.00 | 59 | 1020.0 |
| 20260903192542 | 80 | 339 | 0.0 | 0.0 | 0.00 | 0.00 | 0.00 | 59 | 1020.0 |
| 20260903192059 | 80 | 339 | 0.0 | 0.0 | 0.00 | 0.00 | 0.00 | 59 | 1019.9 |
| 20260903191533 | 80 | 339 | 0.0 | 0.0 | 0.00 | 0.00 | 0.00 | 59 | 1019.9 |
| 20260903191041 | 80 | 339 | 0.0 | 0.0 | 0.00 | 0.00 | 0.00 | 59 | 1019.9 |
| 20260903190545 | 80 | 339 | 0.0 | 0.0 | 0.00 | 0.00 | 0.00 | 59 | 1019.8 |
| 20260903190043 | 81 | 339 | 0.0 | 6.0 | 0.00 | 0.00 | 0.00 | 60 | 1019.7 |
| 20260903185545 | 80 | 326 | 2.0 | 8.0 | 0.00 | 0.00 | 0.00 | 59 | 1019.6 |
| 20260903185035 | 80 | 327 | 4.0 | 8.0 | 0.00 | 0.00 | 0.00 | 60 | 1019.6 |
| 20260903184533 | 81 | 320 | 4.0 | 9.0 | 0.00 | 0.00 | 0.00 | 60 | 1019.5 |
| 20260903184045 | 81 | 302 | 2.0 | 6.0 | 0.00 | 0.00 | 0.00 | 59 | 1019.5 |
| 20260903183547 | 81 | 311 | 3.0 | 6.0 | 0.00 | 0.00 | 0.00 | 59 | 1019.4 |
| 20260903183036 | 81 | 324 | 2.0 | 6.0 | 0.00 | 0.00 | 0.00 | 58 | 1019.4 |
| 20260903182538 | 81 | 316 | 1.0 | 6.0 | 0.00 | 0.00 | 0.00 | 58 | 1019.4 |
| 20260903182047 | 81 | 321 | 3.0 | 8.0 | 0.00 | 0.00 | 0.00 | 59 | 1019.4 |
| 20260903181549 | 81 | 324 | 4.0 | 8.0 | 0.00 | 0.00 | 0.00 | 59 | 1019.3 |
| 20260903181043 | 82 | 304 | 3.0 | 8.0 | 0.00 | 0.00 | 0.00 | 59 | 1019.2 |
| 20260903180544 | 82 | 318 | 4.0 | 9.0 | 0.00 | 0.00 | 0.00 | 59 | 1019.2 |
| 20260903180033 | 82 | 322 | 5.0 | 9.0 | 0.00 | 0.00 | 0.00 | 58 | 1019.2 |
| 20260903175534 | 82 | 310 | 2.0 | 8.0 | 0.00 | 0.00 | 0.00 | 57 | 1019.1 |
| 20260903175041 | 83 | 308 | 3.0 | 9.0 | 0.00 | 0.00 | 0.00 | 57 | 1019.1 |
| 20260903174542 | 83 | 319 | 3.0 | 9.0 | 0.00 | 0.00 | 0.00 | 56 | 1019.1 |
| 20260903174033 | 83 | 324 | 3.0 | 6.0 | 0.00 | 0.00 | 0.00 | 56 | 1019.1 |
| 20260903173534 | 83 | 326 | 1.0 | 5.0 | 0.00 | 0.00 | 0.00 | 56 | 1019.2 |
| 20260903173042 | 82 | 315 | 0.0 | 0.0 | 0.00 | 0.00 | 0.00 | 56 | 1019.1 |
| 20260903172544 | 82 | 297 | 0.0 | 0.0 | 0.00 | 0.00 | 0.00 | 55 | 1019.1 |
| 20260903172034 | 83 | 296 | 0.0 | 0.0 | 0.00 | 0.00 | 0.00 | 52 | 1019.1 |
| 20260903171553 | 83 | 296 | 0.0 | 0.0 | 0.00 | 0.00 | 0.00 | 52 | 1019.2 |
| 20260903171112 | 84 | 296 | 0.0 | 0.0 | 0.00 | 0.00 | 0.00 | 51 | 1019.1 |
| 20260903170532 | 85 | 296 | 0.0 | 0.0 | 0.00 | 0.00 | 0.00 | 50 | 1019.2 |
| 20260903170041 | 85 | 166 | 0.0 | 0.0 | 0.00 | 0.00 | 0.00 | 50 | 1019.2 |
| 20260903165545 | 86 | 166 | 0.0 | 0.0 | 0.00 | 0.00 | 0.00 | 49 | 1019.1 |
| 20260903165044 | 86 | 166 | 0.0 | 0.0 | 0.00 | 0.00 | 0.00 | 50 | 1019.1 |
| 20260903164545 | 87 | 166 | 0.0 | 0.0 | 0.00 | 0.00 | 0.00 | 50 | 1019.1 |
| 20260903164037 | 87 | 166 | 0.0 | 0.0 | 0.00 | 0.00 | 0.00 | 50 | 1019.1 |
| 20260903163534 | 88 | 166 | 0.0 | 0.0 | 0.00 | 0.00 | 0.00 | 50 | 1019.1 |
| 20260903163043 | 88 | 166 | 0.0 | 0.0 | 0.00 | 0.00 | 0.00 | 49 | 1019.0 |
| 20260903162543 | 88 | 166 | 0.0 | 0.0 | 0.00 | 0.00 | 0.00 | 46 | 1019.0 |
| 20260903162032 | 88 | 166 | 0.0 | 0.0 | 0.00 | 0.00 | 0.00 | 46 | 1018.9 |
| 20260903161536 | 88 | 166 | 0.0 | 0.0 | 0.00 | 0.00 | 0.00 | 46 | 1018.9 |
| 20260903161042 | 88 | 166 | 0.0 | 0.0 | 0.00 | 0.00 | 0.00 | 46 | 1018.9 |
| 20260903160547 | 88 | 166 | 0.0 | 0.0 | 0.00 | 0.00 | 0.00 | 47 | 1019.0 |
| 20260903160037 | 88 | 166 | 0.0 | 3.0 | 0.00 | 0.00 | 0.00 | 48 | 1018.9 |
| 20260903155555 | 88 | 166 | 0.0 | 3.0 | 0.00 | 0.00 | 0.00 | 47 | 1018.9 |
| 20260903155042 | 89 | 174 | 0.0 | 0.0 | 0.00 | 0.00 | 0.00 | 47 | 1018.9 |
| 20260903154545 | 89 | 189 | 0.0 | 0.0 | 0.00 | 0.00 | 0.00 | 46 | 1018.9 |
| 20260903154120 | 89 | 206 | 0.0 | 0.0 | 0.00 | 0.00 | 0.00 | 46 | 1018.9 |
| 20260903153533 | 88 | 130 | 0.0 | 0.0 | 0.00 | 0.00 | 0.00 | 47 | 1019.0 |
| 20260903153041 | 88 | 130 | 0.0 | 0.0 | 0.00 | 0.00 | 0.00 | 47 | 1019.0 |
| 20260903152545 | 88 | 130 | 0.0 | 4.0 | 0.00 | 0.00 | 0.00 | 47 | 1019.1 |
| 20260903152057 | 88 | 91 | 0.0 | 5.0 | 0.00 | 0.00 | 0.00 | 47 | 1019.1 |
| 20260903151532 | 89 | 145 | 0.0 | 0.0 | 0.00 | 0.00 | 0.00 | 47 | 1019.2 |
| 20260903151040 | 89 | 166 | 0.0 | 0.0 | 0.00 | 0.00 | 0.00 | 46 | 1019.2 |
| 20260903150542 | 89 | 166 | 0.0 | 0.0 | 0.00 | 0.00 | 0.00 | 47 | 1019.3 |
| 20260903150050 | 88 | 166 | 0.0 | 5.0 | 0.00 | 0.00 | 0.00 | 46 | 1019.3 |
| 20260903145554 | 88 | 166 | 0.0 | 5.0 | 0.00 | 0.00 | 0.00 | 46 | 1019.4 |
| 20260903145045 | 89 | 137 | 0.0 | 3.0 | 0.00 | 0.00 | 0.00 | 47 | 1019.4 |
| 20260903144607 | 89 | 148 | 0.0 | 6.0 | 0.00 | 0.00 | 0.00 | 46 | 1019.4 |
| 20260903144037 | 89 | 148 | 0.0 | 6.0 | 0.00 | 0.00 | 0.00 | 45 | 1019.5 |
| 20260903143541 | 89 | 154 | 0.0 | 0.0 | 0.00 | 0.00 | 0.00 | 44 | 1019.6 |
| 20260903143042 | 89 | 235 | 0.0 | 0.0 | 0.00 | 0.00 | 0.00 | 45 | 1019.6 |
| 20260903142543 | 89 | 235 | 0.0 | 0.0 | 0.00 | 0.00 | 0.00 | 45 | 1019.7 |
| 20260903142056 | 88 | 168 | 0.0 | 5.0 | 0.00 | 0.00 | 0.00 | 45 | 1019.7 |
| 20260903141540 | 88 | 168 | 0.0 | 5.0 | 0.00 | 0.00 | 0.00 | 46 | 1019.7 |
| 20260903141038 | 88 | 153 | 2.0 | 5.0 | 0.00 | 0.00 | 0.00 | 45 | 1019.8 |
| 20260903140539 | 88 | 158 | 0.0 | 0.0 | 0.00 | 0.00 | 0.00 | 45 | 1019.7 |
| 20260903140051 | 87 | 158 | 0.0 | 0.0 | 0.00 | 0.00 | 0.00 | 47 | 1019.7 |
| 20260903135549 | 87 | 158 | 0.0 | 5.0 | 0.00 | 0.00 | 0.00 | 47 | 1019.8 |
| 20260903135038 | 87 | 158 | 2.0 | 6.0 | 0.00 | 0.00 | 0.00 | 46 | 1019.9 |
| 20260903134541 | 87 | 170 | 1.0 | 5.0 | 0.00 | 0.00 | 0.00 | 46 | 1019.9 |
| 20260903134058 | 88 | 131 | 1.0 | 3.0 | 0.00 | 0.00 | 0.00 | 45 | 1019.9 |
| 20260903133535 | 88 | 165 | 0.0 | 0.0 | 0.00 | 0.00 | 0.00 | 44 | 1020.0 |
| 20260903133044 | 88 | 173 | 0.0 | 0.0 | 0.00 | 0.00 | 0.00 | 46 | 1019.9 |
| 20260903132546 | 88 | 148 | 0.0 | 0.0 | 0.00 | 0.00 | 0.00 | 46 | 1020.0 |
| 20260903132037 | 88 | 90 | 0.0 | 0.0 | 0.00 | 0.00 | 0.00 | 46 | 1019.9 |
| 20260903131536 | 88 | 176 | 0.0 | 5.0 | 0.00 | 0.00 | 0.00 | 46 | 1020.0 |
| 20260903131044 | 88 | 175 | 2.0 | 8.0 | 0.00 | 0.00 | 0.00 | 45 | 1020.1 |
| 20260903130605 | 87 | 162 | 3.0 | 8.0 | 0.00 | 0.00 | 0.00 | 47 | 1020.1 |
| 20260903130035 | 87 | 166 | 0.0 | 7.0 | 0.00 | 0.00 | 0.00 | 46 | 1020.1 |
| 20260903125538 | 87 | 103 | 0.0 | 10.0 | 0.00 | 0.00 | 0.00 | 45 | 1020.2 |
| 20260903125057 | 87 | 89 | 0.0 | 10.0 | 0.00 | 0.00 | 0.00 | 46 | 1020.2 |
| 20260903124558 | 87 | 142 | 3.0 | 8.0 | 0.00 | 0.00 | 0.00 | 46 | 1020.2 |
| 20260903124044 | 87 | 106 | 0.0 | 4.0 | 0.00 | 0.00 | 0.00 | 45 | 1020.2 |